Find Starlink 11465

NORAD ID: 62057 Int'l Des: 2024-217 Owner: SPXS Country: US Constellation: starlink operational
別名: STARLINK-11465 [DTC] celestrak
LEOCIRCULAR

現在のビュー

3D地球を読み込み中...

About Starlink 11465

Starlink 11465 (NORAD 62057) is a starlink constellation satellite (v2 mini d2c) launched Nov 24, 2024 by SPXS of US. It operates in LEO, CIRCULAR orbit with a mass of 960.00 kg.

次回通過

Passes for default location (London). Set your location on the main map for personalized predictions.

高度履歴

Loading altitude history...

軌道要素

1 62057U 24217A 26265.28336359 .00144194 00000-0 11723-2 0 9995
2 62057 53.1564 181.9156 0001380 60.9053 299.2102 15.69754254106057
Epoch: Sep 22, 2026 • Age: 24 hours

現在のステータス

高度 368.7 km
遠地点 / 近地点 N/A
速度 7.69 km/s
衛星直下点 -29.85°S, 79.46°W
打ち上げ日 Nov 24, 2024
運用期間 1.8 years
タイプ internet

技術仕様

分類 Payload
質量 960.00 kg
乾燥質量 910.00 kg
長さ 0.30 m
スパン 29.00 m
形状 ? Box + pan
製造者 SPXS
バスタイプ Starlink V2MD
フェーズステータス In Orbit
所有者/国 SPXS/US

Most Searched